map of FNI home
Great Circle Mapper logo
FNI - Airport
Location
City:  Nīmes, France
Name:NAS Nīmes-Garons
ICAO / IATA:LFTW / FNI

Details
Type:Airport (Aerodrome, Airfield)
Use:Public/Civil
Latitude:43°45'27"N (43.757500)
Longitude:4°24'59"E (4.416389)
Elevation:309 ft (94 m)
Variation:1.0°E (WMM2015 magnetic declination)
Runways:1
Longest:8015 × 148 ft (2443 × 45 m), paved

Time
Time Zone:UTC+1 (DST+2)
Local Time:

Weather
METAR:LFTW 220430Z AUTO 01006KT 9999 NSC 04/01 Q1031
TAF:LFTW 212300Z 2200/2224 03010KT 9999 NSC PROB30
TEMPO 2203/2209 3000 BR
BECMG 2209/2212 NSW NSC PROB30
TEMPO 2221/2224 3000 BR

Related Locations
Nearby:
Farthest:CHT: 12397 mi / 19951 km
Waitangi [Tuuta], Chatham Islands, NZ

Find:

   beyond  
but within

Other Information
Maps:
NOTAMs:
Links:
Sources:

  
flag of France   

Sectional Chart

Flight Planning
at skyvector.com

Satellite Image

Google Maps Satellite View

 

Copyright © 2004-2014 Karl L. Swartz. All rights reserved.
The Great Circle Mapper name and logo are trademarks of the Great Circle Mapper.
All other trademarks mentioned herein belong to their respective owners.
Please see credits for attibutions and further copyright information.

  Follow gcmap on Facebook Follow gcmap on Twitter

hCard Microformat

Geo Microformat